Regional Weather Roundup
Issued by NWS

Home | Current Version | Previous Version | Graphics & Text | Print | Product List | Glossary On
Versions: 1 2 3 4 5 6 7 8 9 10 11 12 13 14 15 16 17 18 19 20 21 22 23 24 25 26 27 28 29 30 31 32 33 34 35 36 37 38 39 40 41 42 43 44 45 46 47 48 49 50
126
ASUS43 KDTX 240010
RWRMI
MICHIGAN HOURLY REGIONAL WEATHER ROUNDUP
NATIONAL WEATHER SERVICE DETROIT/PONTIAC MI
700 PM EST FRI FEB 23 2018

NOTE: "FAIR" INDICATES FEW OR NO CLOUDS BELOW 12,000 FEET WITH NO
SIGNIFICANT WEATHER AND/OR OBSTRUCTION TO VISIBILITY.

MIZ047>049-052>055-059>063-066>070-074>076-081>083-240100-
SOUTHEAST LOWER MICHIGAN

CITY           SKY/WX    TMP DP  RH WIND       PRES   REMARKS
ADRIAN         CLOUDY    45  42  89 W10       30.19R
6HR MIN TEMP:  45; 6HR MAX TEMP:  48;

ALMA           CLOUDY    39  36  89 W14G21    30.17R WCI  31
6HR MIN TEMP:  39; 6HR MAX TEMP:  42;

ANN ARBOR      CLOUDY    45  41  86 W14       30.17R
BAD AXE        CLOUDY    40  39  97 W17       30.12R WCI  31
6HR MIN TEMP:  38; 6HR MAX TEMP:  42;

CARO           CLOUDY    41  39  95 W13       30.13R
DETROIT CITY   CLOUDY    47  42  83 W9G22     30.16R
6HR MIN TEMP:  45; 6HR MAX TEMP:  49;

DETROIT        CLOUDY    47  43  86 W18       30.17R
6HR MIN TEMP:  46; 6HR MAX TEMP:  50;

FLINT          CLOUDY    41  39  93 W16       30.16R
6HR MIN TEMP:  41; 6HR MAX TEMP:  46;

GROSSE ILE     CLOUDY    47  43  85 W8        30.16R
6HR MIN TEMP:  37; 6HR MAX TEMP:  49;

HILLSDALE      CLOUDY    41  39  93 W10G17    30.18R FOG
HOWELL         CLOUDY    42  40  91 W15G23    30.17R
6HR MIN TEMP:  42; 6HR MAX TEMP:  46;


CITY           SKY/WX    TMP DP  RH WIND       PRES   REMARKS
JACKSON        CLOUDY    42  40  92 W12       30.18R
6HR MIN TEMP:  42; 6HR MAX TEMP:  47;

LAMBERTVILLE   CLOUDY    47  44  90 W10       30.19R
6HR MIN TEMP:  47; 6HR MAX TEMP:  49;

LANSING        CLOUDY    40  37  89 W15G23    30.18R WCI  32
6HR MIN TEMP:  40; 6HR MAX TEMP:  44;

LAPEER         CLOUDY    43  40  89 W9G17     30.15R
6HR MIN TEMP:  43; 6HR MAX TEMP:  46;

MASON          CLOUDY    42  37  82 W10       30.18R
6HR MIN TEMP:  42; 6HR MAX TEMP:  46;

MONROE         CLOUDY    47  44  90 W12       30.17R
6HR MIN TEMP:  47; 6HR MAX TEMP:  49;

MT. CLEMENS    CLOUDY    47  47 100 W13       30.13R
6HR MIN TEMP:  43; 6HR MAX TEMP:  48;

PONTIAC        CLOUDY    44  41  89 W15       30.14R
6HR MIN TEMP:  43; 6HR MAX TEMP:  46;

PORT HOPE        N/A     41  39  93 W9G18     30.08R
6HR MIN TEMP:  39; 6HR MAX TEMP:  42;

PORT HURON     CLOUDY    46  41  81 W5        30.14R
TRI CITIES     CLOUDY    40  36  86 W16       30.14R WCI  31
6HR MIN TEMP:  38; 6HR MAX TEMP:  44;

MIDLAND        CLOUDY    40  35  83 W14G21    30.14R WCI  32
6HR MIN TEMP:  40; 6HR MAX TEMP:  43;

TROY           CLOUDY    47  43  87 W10G16    30.17R
SAGINAW HB     CLOUDY    41  36  81 W21G26    30.14R
$$
MIZ043>046-050>051-056>058-064>065-071>073-077>080-240100-
SOUTHWEST LOWER MICHIGAN

CITY           SKY/WX    TMP DP  RH WIND       PRES   REMARKS
BATTLE CREEK   CLOUDY    39  36  89 W14       30.21R WCI  31
6HR MIN TEMP:  39; 6HR MAX TEMP:  45;

BENTON HARBOR  CLOUDY    37  34  89 W10       30.24R WCI  30
6HR MIN TEMP:  37; 6HR MAX TEMP:  43;

BIG RAPIDS     CLOUDY    36  31  81 W12G18    30.15S WCI  28
6HR MIN TEMP:  36; 6HR MAX TEMP:  40;

COLDWATER      CLOUDY    41  41 100 W12       30.21R
6HR MIN TEMP:  41; 6HR MAX TEMP:  46;

FREMONT        CLOUDY    36  32  85 W6        30.19R WCI  31
6HR MIN TEMP:  36; 6HR MAX TEMP:  40;

HOLLAND        CLOUDY    38  34  85 W9        30.22R WCI  31
6HR MIN TEMP:  38; 6HR MAX TEMP:  43;

GRAND RAPIDS   CLOUDY    38  36  92 W14       30.20R WCI  30
6HR MIN TEMP:  38; 6HR MAX TEMP:  44; 6HR PCP: TRACE;

IONIA          CLOUDY    38  37  93 W16       30.18R WCI  30
6HR MIN TEMP:  38; 6HR MAX TEMP:  44;

KALAMAZOO      CLOUDY    40  36  86 W10       30.22R WCI  33
6HR MIN TEMP:  40; 6HR MAX TEMP:  46;

LUDINGTON      CLOUDY    36  33  91 W6        30.18R WCI  31
6HR MIN TEMP:  35; 6HR MAX TEMP:  38;

MARSHALL       CLOUDY    39  39  98 W14G20    30.20R WCI  31
6HR MIN TEMP:  39; 6HR MAX TEMP:  44;

MOUNT PLEASANT CLOUDY    39  34  82 W14       30.16R WCI  30
6HR MIN TEMP:  39; 6HR MAX TEMP:  43;

MUSKEGON       CLOUDY    37  33  85 W8        30.21R WCI  31
6HR MIN TEMP:  37; 6HR MAX TEMP:  41;

SOUTH HAVEN    CLOUDY    37  35  91 W6        30.24R WCI  33
$$
MIZ016>042-240100-
NORTHERN LOWER MICHIGAN

CITY           SKY/WX    TMP DP  RH WIND       PRES   REMARKS
ALPENA         CLOUDY    39  33  79 W17G28    30.08R WCI  30
6HR MIN TEMP:  39; 6HR MAX TEMP:  43;

BEAVER ISLAND  CLOUDY    35  32  91 SW14      30.09R WCI  25
6HR MIN TEMP:  34; 6HR MAX TEMP:  37;

BELLAIRE       CLOUDY    37  33  87 SW5       30.13R WCI  33
6HR MIN TEMP:  37; 6HR MAX TEMP:  39;

CADILLAC       CLOUDY    34  32  93 W12       30.12R WCI  25
CHARLEVOIX     CLOUDY    36  34  94 SW16G23   30.14R WCI  26
6HR MIN TEMP:  36; 6HR MAX TEMP:  38;

FRANKFORT      CLOUDY    38  33  83 W8        30.16R WCI  32
GAYLORD        CLOUDY    34  32  92 W17G25    30.07R WCI  23
6HR MIN TEMP:  34; 6HR MAX TEMP:  37;

GRAYLING       CLOUDY    35  31  83 W10G23    30.10R WCI  28
6HR MIN TEMP:  35; 6HR MAX TEMP:  39;

HARBOR SPRINGS LGT RAIN  33  33  99 W12       30.09R WCI  25
HOUGHTON LAKE  CLOUDY    35  31  85 W14       30.12R WCI  26
6HR MIN TEMP:  35; 6HR MAX TEMP:  38;

MANISTEE       CLOUDY    37  31  78 W13       30.18R WCI  29
OSCODA         CLOUDY    40  36  84 W14       30.09R WCI  32
6HR MIN TEMP:  39; 6HR MAX TEMP:  42;

PELLSTON       CLOUDY    36  32  85 W15G23    30.08R WCI  27
6HR MIN TEMP:  36; 6HR MAX TEMP:  38;

ROGERS CITY    CLOUDY    36  31  82 W7        30.08R WCI  31
TRAVERSE CITY  CLOUDY    39  31  72 W7G17     30.14R WCI  34
6HR MIN TEMP:  39; 6HR MAX TEMP:  40; 6HR PCP: TRACE;

$$
MIZ007>008-015-240100-
EASTERN UPPER MICHIGAN

CITY           SKY/WX    TMP DP  RH WIND       PRES   REMARKS
KINROSS        FLURRIES  31  30  96 NW15      30.04R WCI  20
6HR MIN TEMP:  31; 6HR MAX TEMP:  35; 6HR PCP: TRACE;

MACKINAC ISLAN CLOUDY    33  33 100 W14G24    30.05R WCI  23
6HR MIN TEMP:  33; 6HR MAX TEMP:  34;

NEWBERRY       CLOUDY    31  29  91 W14G22    30.06R WCI  21
6HR MIN TEMP:  31; 6HR MAX TEMP:  35;

S. S. MARIE    CLOUDY    33  28  81 W15G21    30.03R WCI  23
6HR MIN TEMP:  33; 6HR MAX TEMP:  37; 6HR PCP: TRACE;

MUNISING         N/A     31  27  85 NW9       30.10R WCI  23
6HR MIN TEMP:  31; 6HR MAX TEMP:  39;

$$
MIZ004>006-011>014-085-240100-
CENTRAL UPPER MICHIGAN

CITY           SKY/WX    TMP DP  RH WIND       PRES   REMARKS
MANISTIQUE     CLOUDY    32  31  96 NW5       30.09R WCI  27
6HR MIN TEMP:  32; 6HR MAX TEMP:  36;

ESCANABA       CLOUDY    35  25  66 W12       30.13R WCI  27
6HR MIN TEMP:  35; 6HR MAX TEMP:  38;

MENOMINEE      CLOUDY    35  27  72 NW9G17    30.17R WCI  28
6HR MIN TEMP:  35; 6HR MAX TEMP:  40;

SAWYER-GWINN   CLOUDY    28  23  80 NW8       30.08R WCI  20
$$
MIZ001>003-009>011-084-240100-
WESTERN UPPER MICHIGAN

CITY           SKY/WX    TMP DP  RH WIND       PRES   REMARKS
IRON MOUNTAIN  CLOUDY    32  24  72 W8        30.10R WCI  25
6HR MIN TEMP:  32; 6HR MAX TEMP:  35;

HOUGHTON       MOCLDY    28  22  78 W15       30.07R WCI  16
6HR MIN TEMP:  27; 6HR MAX TEMP:  30; 6HR PCP: TRACE;

COPPER HARBOR    N/A     30  24  78 VRB5      30.07R WCI  25
6HR MIN TEMP:  30; 6HR MAX TEMP:  33; 6HR PCP:  0.01;

IRONWOOD       CLOUDY    28  22  78 W13       30.13R WCI  17
6HR MIN TEMP:  28; 6HR MAX TEMP:  30; 6HR PCP: TRACE;

$$

ABBREVIATIONS USED IN REMARKS
   TC - TEMPERATURE IN CELSIUS
  WCI - WIND CHILL INDEX
   HX - HEAT INDEX
  VSB - VISIBILITY





USA.gov is the U.S. government's official web portal to all federal, state and local government web resources and services.